Todos
San Ysidro Ranch Airport (Catarina, TX) TS40 Condições meteorológicas
There is no TAF data available at TS40 or any nearby airports.
There is no METAR data available at TS40. Showing METAR data for KCZT (16 mi NO).
Histórico recente de METAR CZT (sem dados para TS40)
| Date | Time (CDT) | Flight Rules | Wind Dir. | Speed | Type | Height AGL (ft) | Visibility | Temp (°C) | Temp (°F) | Dew Point (°C) | Dew Point (°F) | Rel. Humid. | Pressure | Density Altitude | Remarks |
|---|---|---|---|---|---|---|---|---|---|---|---|---|---|---|---|
| 04-Set | 09:15 | VFR | 100° | 7 kt | 10 miles | 27° | 80° | 27° | 80° | 100% | 29.93 in Hg | 2.028 ft | |||
| 04-Set | 08:55 | VFR | 100° | 7 kt | 10 miles | 27° | 80° | 27° | 80° | 100% | 29.93 in Hg | 2.028 ft | |||
| 04-Set | 08:15 | VFR | 110° | 5 kt | 10 miles | 26° | 78° | 26° | 78° | 100% | 29.92 in Hg | 1.918 ft | |||
| 04-Set | 07:55 | VFR | 110° | 4 kt | 10 miles | 26° | 78° | 26° | 78° | 100% | 29.91 in Hg | 1.928 ft | |||
| 04-Set | 07:35 | VFR | 100° | 4 kt | 10 miles | 25° | 77° | 25° | 77° | 100% | 29.90 in Hg | 1.818 ft | |||
| 04-Set | 07:15 | VFR | Calm | 10 miles | 25° | 77° | 25° | 77° | 100% | 29.89 in Hg | 1.828 ft | ||||
| 04-Set | 06:55 | VFR | 120° | 3 kt | 10 miles | 25° | 77° | 25° | 77° | 100% | 29.88 in Hg | 1.838 ft | |||
| 04-Set | 06:15 | VFR | 120° | 3 kt | 10 miles | 25° | 77° | 25° | 77° | 100% | 29.88 in Hg | 1.838 ft | |||
| 04-Set | 05:55 | VFR | 90° | 3 kt | 10 miles | 25° | 77° | 25° | 77° | 100% | 29.88 in Hg | 1.838 ft | |||
| 04-Set | 05:15 | VFR | Calm | 10 miles | 26° | 78° | 25° | 77° | 94% | 29.87 in Hg | 1.968 ft | ||||
| 04-Set | 04:55 | VFR | 130° | 4 kt | 10 miles | 26° | 78° | 24° | 75° | 89% | 29.87 in Hg | 1.968 ft | |||
| 04-Set | 04:35 | VFR | 110° | 3 kt | 10 miles | 26° | 78° | 24° | 75° | 89% | 29.88 in Hg | 1.958 ft | |||
| 04-Set | 04:15 | VFR | 100° | 3 kt | 10 miles | 27° | 80° | 23° | 73° | 79% | 29.88 in Hg | 2.078 ft | |||
| 04-Set | 03:55 | VFR | 120° | 3 kt | 10 miles | 27° | 80° | 23° | 73° | 79% | 29.88 in Hg | 2.078 ft | |||
| 04-Set | 03:15 | VFR | 140° | 6 kt | 10 miles | 27° | 80° | 23° | 73° | 79% | 29.87 in Hg | 2.088 ft | |||
| 04-Set | 02:55 | VFR | 140° | 6 kt | 10 miles | 27° | 80° | 23° | 73° | 79% | 29.88 in Hg | 2.078 ft | |||
| 04-Set | 02:35 | VFR | 150° | 7 kt | 10 miles | 28° | 82° | 23° | 73° | 74% | 29.88 in Hg | 2.198 ft | |||
| 04-Set | 02:15 | VFR | 140° | 6 kt | 10 miles | 28° | 82° | 23° | 73° | 74% | 29.88 in Hg | 2.198 ft | |||
| 04-Set | 01:55 | VFR | 130° | 8 kt | 10 miles | 28° | 82° | 23° | 73° | 74% | 29.89 in Hg | 2.188 ft | |||
| 04-Set | 01:35 | VFR | 130° | 8 kt | 10 miles | 28° | 82° | 23° | 73° | 74% | 29.89 in Hg | 2.188 ft | |||
| 04-Set | 01:15 | VFR | 140° | 10 kt | 10 miles | 28° | 82° | 23° | 73° | 74% | 29.90 in Hg | 2.178 ft | |||
| 04-Set | 00:55 | VFR | 130° | 11 kt | 10 miles | 29° | 84° | 23° | 73° | 70% | 29.89 in Hg | 2.308 ft | Wind gusting to 14 KT | ||
| 04-Set | 00:35 | VFR | 140° | 9 kt | 10 miles | 29° | 84° | 22° | 71° | 66% | 29.88 in Hg | 2.318 ft | Wind gusting to 17 KT | ||
| 04-Set | 00:15 | VFR | 130° | 12 kt | 10 miles | 30° | 86° | 23° | 73° | 66% | 29.88 in Hg | 2.438 ft | Wind gusting to 17 KT |
Entrar
| Seu navegador não suporta. atualize seu navegador |
